Tracking 22124 objects as of 24-Jan-2021
HD Live streaming from Space Station
objects crossing your sky now

ONEWEB-0126

Track ONEWEB-0126 now!
10-day predictions
ONEWEB-0126 is classified as:


NORAD ID: 47272
Int'l Code: 2020-100Q
Perigee: 577.4 km
Apogee: 593.7 km
Inclination: 87.5 °
Period: 96.2 minutes
Semi major axis: 6956 km
RCS: Unknown
Launch date: December 18, 2020
Source: United Kingdom (UK)
Launch site: VOSTOCHNY COSMODROME (VOSTO)
aabbcc
Your satellite tracking list
Your tracking list is empty




NASA's NSSDC Master Catalog

Two Line Element Set (TLE):
1 47272U 20100Q   21024.16667824 -.01465644  00000-0 -14219+0 0  9992
2 47272  87.4585  26.8597 0011691 123.8922 199.7803 14.96278366  5591
Source of the keplerian elements: AFSPC